Flag for Switzerland Weather past 2 weeks in Schaffhausen, Schaffhausen, Switzerland

Now
70 °F

Mild.


Feels Like: 70 °F
Forecast: 61 / 94 °F
Wind: 5 mph from Southeast

Location: Zurich-Kloten

Current Time: Jul 3, 2015 at 5:07:41 AM

Latest Report: Jul 3, 2015 at 4:00 AM


Visibility: N/A

Pressure: 30.19 "Hg

Humidity: 82%

Dew point: 64 °F

Location of SchaffhausenLocation

Historic Weather in Schaffhausen — Graph

°F

Schaffhausen temperature yesterday

Maximum temperature yesterday: 93 °F (at 5:00 PM)
Minimum temperature yesterday: 61 °F (at 6:00 AM)
Average temperature yesterday: 77 °F

Past Weeks' High & Low Weather Summary

 TemperatureHumidityPressure
High93 °F (Jul 2, 5:00 PM)96% (Jun 19, 1:00 AM)30.25 "Hg (Jun 19, 1:00 AM)
Low44 °F (Jun 24, 5:00 AM)25% (Jun 25, 7:00 PM)29.74 "Hg (Jun 22, 10:00 PM)
Average65 °F67%30.09 "Hg
* Reported Jun 18 5:00 AM — Jul 3 3:00 AM, Schaffhausen, Weather by CustomWeather, © 2015

Note: Actual official high and low records may vary slightly from our data, if they occured in-between our weather recording intervals... More about our weather records

Advertising

Schaffhausen weather history for previous 24 hours

 ConditionsComfort  
Time TempWeatherWind HumidityBarometerVisibility
3:00 AM
Fri, Jul 3
70 °FMild.2 mph80%30.19 "HgN/A
2:00 AM69 °FPassing clouds.1 mph84%30.19 "Hg16 mi
1:00 AM72 °FMild.2 mph74%30.17 "HgN/A
12:00 AM73 °FMild.5 mph75%30.16 "HgN/A
10:00 PM
Thu, Jul 2
75 °FMild.2 mph70%30.13 "HgN/A
9:00 PM82 °FWarm.2 mph55%30.08 "HgN/A
8:00 PM89 °FPassing clouds.5 mph39%30.05 "Hg16 mi
7:00 PM91 °FHot.8 mph36%30.04 "HgN/A
6:00 PM93 °FHot.5 mph35%30.03 "HgN/A
5:00 PM93 °FPassing clouds.5 mph31%30.03 "Hg16 mi
4:00 PM92 °FHot.2 mph30%30.04 "HgN/A
3:00 PM92 °FHot.3 mph35%30.04 "HgN/A
2:00 PM90 °FSunny.6 mph37%30.05 "Hg14 mi
1:00 PM88 °FWarm.2 mph48%30.07 "HgN/A
12:00 PM85 °FWarm.2 mph53%30.09 "HgN/A
11:00 AM81 °FSunny.2 mph56%30.09 "Hg16 mi
10:00 AM78 °FWarm.2 mph62%30.11 "HgN/A
9:00 AM74 °FMild.2 mph67%30.13 "HgN/A
8:00 AM69 °FSunny.2 mph70%30.14 "Hg16 mi
7:00 AM64 °FMild.1 mph86%30.15 "HgN/A
6:00 AM61 °FCool.1 mph90%30.15 "HgN/A
5:00 AM61 °FCool.2 mph89%30.14 "HgN/A
Weather by CustomWeather, © 2015

See weather overviewHow to use our weather pages